Year,Month,Day,Hour,Minute,Value (Times are PST for temperature in C)
2007,07,11,00,01,22.20
2007,07,11,00,02,22.20
2007,07,11,00,03,22.20
2007,07,11,00,04,22.10
2007,07,11,00,05,22.10
2007,07,11,00,06,22.10
2007,07,11,00,07,22.00
2007,07,11,00,08,22.00
2007,07,11,00,09,22.00
2007,07,11,00,10,22.00
2007,07,11,00,11,22.00
2007,07,11,00,12,21.90
2007,07,11,00,13,21.90
2007,07,11,00,14,21.90
2007,07,11,00,15,21.90
2007,07,11,00,16,21.90
2007,07,11,00,17,21.80
2007,07,11,00,18,21.80
2007,07,11,00,19,21.80
2007,07,11,00,20,21.80
2007,07,11,00,21,21.80
2007,07,11,00,22,21.70
2007,07,11,00,23,21.70
2007,07,11,00,24,21.70
2007,07,11,00,25,21.60
2007,07,11,00,26,21.60
2007,07,11,00,27,21.60
2007,07,11,00,28,21.60
2007,07,11,00,30,21.60
2007,07,11,00,31,21.40
2007,07,11,00,32,21.40
2007,07,11,00,33,21.30
2007,07,11,00,34,21.30
2007,07,11,00,35,21.30
2007,07,11,00,36,21.30
2007,07,11,00,37,21.30
2007,07,11,00,38,21.20
2007,07,11,00,39,21.20
2007,07,11,00,40,21.10
2007,07,11,00,41,21.10
2007,07,11,00,42,21.00
2007,07,11,00,43,21.00
2007,07,11,00,44,20.90
2007,07,11,00,47,20.70
2007,07,11,00,48,20.70
2007,07,11,00,49,20.70
2007,07,11,00,50,20.60
2007,07,11,00,52,20.60
2007,07,11,00,53,20.60
2007,07,11,00,54,20.50
2007,07,11,00,55,20.50
2007,07,11,00,56,20.50
2007,07,11,00,57,20.50
2007,07,11,00,58,20.40
2007,07,11,00,59,20.40
2007,07,11,01,01,20.40
2007,07,11,01,02,20.40
2007,07,11,01,04,20.30
2007,07,11,01,05,20.30
2007,07,11,01,06,20.30
2007,07,11,01,07,20.30
2007,07,11,01,08,20.30
2007,07,11,01,09,20.20
2007,07,11,01,11,20.20
2007,07,11,01,12,20.20
2007,07,11,01,13,20.20
2007,07,11,01,14,20.20
2007,07,11,01,15,20.10
2007,07,11,01,16,20.10
2007,07,11,01,17,19.90
2007,07,11,01,18,19.90
2007,07,11,01,19,19.90
2007,07,11,01,20,19.90
2007,07,11,01,21,19.80
2007,07,11,01,22,19.80
2007,07,11,01,23,19.80
2007,07,11,01,24,19.70
2007,07,11,01,25,19.60
2007,07,11,01,26,19.60
2007,07,11,01,27,19.60
2007,07,11,01,28,19.60
2007,07,11,01,29,19.60
2007,07,11,01,30,19.50
2007,07,11,01,31,19.50
2007,07,11,01,32,19.50
2007,07,11,01,33,19.50
2007,07,11,01,34,19.50
2007,07,11,01,35,19.40
2007,07,11,01,36,19.40
2007,07,11,01,37,19.40
2007,07,11,01,38,19.40
2007,07,11,01,39,19.40
2007,07,11,01,40,19.40
2007,07,11,01,41,19.30
2007,07,11,01,42,19.30
2007,07,11,01,43,19.30
2007,07,11,01,44,19.30
2007,07,11,01,45,19.30
2007,07,11,01,46,19.20
2007,07,11,01,47,19.20
2007,07,11,01,48,19.20
2007,07,11,01,49,19.20
2007,07,11,01,50,19.10
2007,07,11,01,51,19.10
2007,07,11,01,52,19.10
2007,07,11,01,53,19.10
2007,07,11,01,54,19.10
2007,07,11,01,55,19.10
2007,07,11,01,56,19.10
2007,07,11,01,57,19.10
2007,07,11,01,58,19.10
2007,07,11,01,59,19.10
2007,07,11,02,00,19.10
2007,07,11,02,01,19.10
2007,07,11,02,02,19.10
2007,07,11,02,03,19.10
2007,07,11,02,04,19.10
2007,07,11,02,05,19.10
2007,07,11,02,06,19.10
2007,07,11,02,07,19.10
2007,07,11,02,08,18.90
2007,07,11,02,09,18.90
2007,07,11,02,10,18.90
2007,07,11,02,11,18.90
2007,07,11,02,12,18.90
2007,07,11,02,13,18.90
2007,07,11,02,14,18.90
2007,07,11,02,15,18.90
2007,07,11,02,16,18.90
2007,07,11,02,17,18.90
2007,07,11,02,18,18.90
2007,07,11,02,19,18.90
2007,07,11,02,20,18.80
2007,07,11,02,21,18.80
2007,07,11,02,22,18.80
2007,07,11,02,23,18.80
2007,07,11,02,24,18.80
2007,07,11,02,25,18.80
2007,07,11,02,26,18.70
2007,07,11,02,27,18.70
2007,07,11,02,28,18.70
2007,07,11,02,29,18.70
2007,07,11,02,30,18.70
2007,07,11,02,31,18.70
2007,07,11,02,32,18.70
2007,07,11,02,33,18.60
2007,07,11,02,34,18.60
2007,07,11,02,35,18.60
2007,07,11,02,36,18.60
2007,07,11,02,37,18.60
2007,07,11,02,38,18.50
2007,07,11,02,39,18.50
2007,07,11,02,40,18.50
2007,07,11,02,41,18.50
2007,07,11,02,42,18.50
2007,07,11,02,43,18.50
2007,07,11,02,44,18.50
2007,07,11,02,45,18.40
2007,07,11,02,46,18.40
2007,07,11,02,47,18.40
2007,07,11,02,48,18.40
2007,07,11,02,49,18.40
2007,07,11,02,50,18.40
2007,07,11,02,51,18.30
2007,07,11,02,52,18.30
2007,07,11,02,53,18.30
2007,07,11,02,54,18.20
2007,07,11,02,55,18.20
2007,07,11,02,56,18.20
2007,07,11,02,57,18.20
2007,07,11,02,58,18.20
2007,07,11,02,59,18.20
2007,07,11,03,00,18.10
2007,07,11,03,01,18.10
2007,07,11,03,02,18.10
2007,07,11,03,03,18.10
2007,07,11,03,04,17.90
2007,07,11,03,05,17.90
2007,07,11,03,08,17.90
2007,07,11,03,09,17.90
2007,07,11,03,10,17.90
2007,07,11,03,11,17.90
2007,07,11,03,12,17.90
2007,07,11,03,13,17.90
2007,07,11,03,14,17.90
2007,07,11,03,15,17.90
2007,07,11,03,16,17.80
2007,07,11,03,17,17.80
2007,07,11,03,18,17.80
2007,07,11,03,19,17.80
2007,07,11,03,20,17.80
2007,07,11,03,21,17.80
2007,07,11,03,22,17.70
2007,07,11,03,23,17.70
2007,07,11,03,24,17.70
2007,07,11,03,25,17.70
2007,07,11,03,26,17.70
2007,07,11,03,27,17.70
2007,07,11,03,28,17.70
2007,07,11,03,29,17.60
2007,07,11,03,30,17.60
2007,07,11,03,31,17.60
2007,07,11,03,32,17.60
2007,07,11,03,33,17.60
2007,07,11,03,34,17.60
2007,07,11,03,35,17.60
2007,07,11,03,36,17.50
2007,07,11,03,37,17.50
2007,07,11,03,38,17.50
2007,07,11,03,39,17.50
2007,07,11,03,40,17.50
2007,07,11,03,41,17.50
2007,07,11,03,42,17.40
2007,07,11,03,43,17.40
2007,07,11,03,44,17.40
2007,07,11,03,45,17.40
2007,07,11,03,46,17.40
2007,07,11,03,47,17.40
2007,07,11,03,48,17.40
2007,07,11,03,49,17.30
2007,07,11,03,50,17.30
2007,07,11,03,51,17.30
2007,07,11,03,52,17.30
2007,07,11,03,53,17.30
2007,07,11,03,54,17.30
2007,07,11,03,55,17.30
2007,07,11,03,56,17.30
2007,07,11,03,57,17.30
2007,07,11,03,58,17.20
2007,07,11,03,59,17.20
2007,07,11,04,00,17.20
2007,07,11,04,01,17.20
2007,07,11,04,02,17.20
2007,07,11,04,03,17.10
2007,07,11,04,04,17.10
2007,07,11,04,05,17.10
2007,07,11,04,06,17.10
2007,07,11,04,07,17.10
2007,07,11,04,08,17.10
2007,07,11,04,09,17.00
2007,07,11,04,10,17.00
2007,07,11,04,11,17.00
2007,07,11,04,12,17.00
2007,07,11,04,13,16.90
2007,07,11,04,14,16.90
2007,07,11,04,15,16.90
2007,07,11,04,16,16.90
2007,07,11,04,17,16.90
2007,07,11,04,18,16.80
2007,07,11,04,19,16.80
2007,07,11,04,20,16.80
2007,07,11,04,21,16.80
2007,07,11,04,22,16.70
2007,07,11,04,23,16.70
2007,07,11,04,24,16.70
2007,07,11,04,25,16.70
2007,07,11,04,26,16.70
2007,07,11,04,27,16.70
2007,07,11,04,28,16.70
2007,07,11,04,29,16.70
2007,07,11,04,30,16.70
2007,07,11,04,31,16.70
2007,07,11,04,32,16.70
2007,07,11,04,33,16.60
2007,07,11,04,34,16.60
2007,07,11,04,35,16.60
2007,07,11,04,36,16.60
2007,07,11,04,37,16.60
2007,07,11,04,38,16.60
2007,07,11,04,39,16.40
2007,07,11,04,40,16.40
2007,07,11,04,41,16.40
2007,07,11,04,42,16.40
2007,07,11,04,43,16.40
2007,07,11,04,44,16.40
2007,07,11,04,45,16.40
2007,07,11,04,46,16.40
2007,07,11,04,47,16.40
2007,07,11,04,48,16.40
2007,07,11,04,49,16.40
2007,07,11,04,50,16.40
2007,07,11,04,51,16.40
2007,07,11,04,52,16.40
2007,07,11,04,53,16.40
2007,07,11,04,54,16.40
2007,07,11,04,55,16.40
2007,07,11,04,56,16.40
2007,07,11,04,57,16.40
2007,07,11,04,58,16.40
2007,07,11,04,59,16.40
2007,07,11,05,00,16.40
2007,07,11,05,01,16.40
2007,07,11,05,02,16.40
2007,07,11,05,03,16.40
2007,07,11,05,04,16.40
2007,07,11,05,05,16.40
2007,07,11,05,06,16.40
2007,07,11,05,07,16.40
2007,07,11,05,08,16.40
2007,07,11,05,09,16.30
2007,07,11,05,10,16.30
2007,07,11,05,11,16.30
2007,07,11,05,12,16.30
2007,07,11,05,13,16.30
2007,07,11,05,14,16.30
2007,07,11,05,15,16.30
2007,07,11,05,16,16.30
2007,07,11,05,17,16.30
2007,07,11,05,18,16.30
2007,07,11,05,19,16.30
2007,07,11,05,20,16.30
2007,07,11,05,21,16.20
2007,07,11,05,22,16.20
2007,07,11,05,23,16.30
2007,07,11,05,24,16.30
2007,07,11,05,25,16.20
2007,07,11,05,26,16.20
2007,07,11,05,27,16.20
2007,07,11,05,28,16.20
2007,07,11,05,29,16.20
2007,07,11,05,30,16.20
2007,07,11,05,31,16.20
2007,07,11,05,32,16.20
2007,07,11,05,33,16.20
2007,07,11,05,34,16.20
2007,07,11,05,35,16.20
2007,07,11,05,36,16.10
2007,07,11,05,37,16.10
2007,07,11,05,38,16.10
2007,07,11,05,39,16.10
2007,07,11,05,40,16.10
2007,07,11,05,41,16.10
2007,07,11,05,43,16.10
2007,07,11,05,44,15.90
2007,07,11,05,45,15.90
2007,07,11,05,46,15.90
2007,07,11,05,47,15.90
2007,07,11,05,48,15.90
2007,07,11,05,49,15.90
2007,07,11,05,50,15.80
2007,07,11,05,51,15.80
2007,07,11,05,52,15.80
2007,07,11,05,53,15.80
2007,07,11,05,54,15.80
2007,07,11,05,55,15.80
2007,07,11,05,56,15.80
2007,07,11,05,57,15.80
2007,07,11,05,58,15.80
2007,07,11,05,59,15.80
2007,07,11,06,00,15.80
2007,07,11,06,01,15.80
2007,07,11,06,02,15.80
2007,07,11,06,04,15.80
2007,07,11,06,05,15.80
2007,07,11,06,06,15.80
2007,07,11,06,07,15.80
2007,07,11,06,08,15.80
2007,07,11,06,09,15.80
2007,07,11,06,10,15.80
2007,07,11,06,11,15.80
2007,07,11,06,12,15.80
2007,07,11,06,13,15.80
2007,07,11,06,14,15.80
2007,07,11,06,15,15.80
2007,07,11,06,16,15.80
2007,07,11,06,17,15.80
2007,07,11,06,18,15.80
2007,07,11,06,19,15.80
2007,07,11,06,20,15.80
2007,07,11,06,21,15.80
2007,07,11,06,22,15.80
2007,07,11,06,23,15.80
2007,07,11,06,24,15.80
2007,07,11,06,25,15.80
2007,07,11,06,26,15.80
2007,07,11,06,27,15.80
2007,07,11,06,28,15.80
2007,07,11,06,29,15.80
2007,07,11,06,30,15.80
2007,07,11,06,31,15.90
2007,07,11,06,32,15.90
2007,07,11,06,33,15.90
2007,07,11,06,34,15.90
2007,07,11,06,35,15.90
2007,07,11,06,36,16.10
2007,07,11,06,37,16.10
2007,07,11,06,38,16.10
2007,07,11,06,39,16.10
2007,07,11,06,40,16.10
2007,07,11,06,41,16.10
2007,07,11,06,42,16.20
2007,07,11,06,43,16.20
2007,07,11,06,44,16.20
2007,07,11,06,45,16.30
2007,07,11,06,46,16.30
2007,07,11,06,47,16.40
2007,07,11,06,48,16.40
2007,07,11,06,49,16.40
2007,07,11,06,50,16.60
2007,07,11,06,51,16.60
2007,07,11,06,52,16.70
2007,07,11,06,53,16.70
2007,07,11,06,54,16.70
2007,07,11,06,55,16.70
2007,07,11,06,56,16.80
2007,07,11,06,57,16.80
2007,07,11,06,58,16.80
2007,07,11,06,59,16.90
2007,07,11,07,00,16.90
2007,07,11,07,01,17.00
2007,07,11,07,02,17.00
2007,07,11,07,03,17.00
2007,07,11,07,04,17.00
2007,07,11,07,05,17.00
2007,07,11,07,06,17.10
2007,07,11,07,07,17.10
2007,07,11,07,08,17.10
2007,07,11,07,09,17.20
2007,07,11,07,10,17.20
2007,07,11,07,11,17.30
2007,07,11,07,12,17.30
2007,07,11,07,13,17.30
2007,07,11,07,14,17.30
2007,07,11,07,15,17.40
2007,07,11,07,16,17.50
2007,07,11,07,17,17.50
2007,07,11,07,18,17.60
2007,07,11,07,19,17.60
2007,07,11,07,20,17.70
2007,07,11,07,21,17.70
2007,07,11,07,22,17.80
2007,07,11,07,23,17.80
2007,07,11,07,24,17.90
2007,07,11,07,25,17.90
2007,07,11,07,26,17.90
2007,07,11,07,27,17.90
2007,07,11,07,28,18.10
2007,07,11,07,29,18.10
2007,07,11,07,30,18.10
2007,07,11,07,31,18.20
2007,07,11,07,32,18.20
2007,07,11,07,33,18.20
2007,07,11,07,34,18.20
2007,07,11,07,35,18.20
2007,07,11,07,36,18.30
2007,07,11,07,37,18.30
2007,07,11,07,38,18.40
2007,07,11,07,39,18.50
2007,07,11,07,40,18.60
2007,07,11,07,41,18.60
2007,07,11,07,42,18.60
2007,07,11,07,43,18.70
2007,07,11,07,44,18.70
2007,07,11,07,45,18.80
2007,07,11,07,46,18.90
2007,07,11,07,47,18.90
2007,07,11,07,48,18.90
2007,07,11,07,49,19.10
2007,07,11,07,50,19.10
2007,07,11,07,51,19.20
2007,07,11,07,52,19.20
2007,07,11,07,53,19.20
2007,07,11,07,54,19.30
2007,07,11,07,55,19.30
2007,07,11,07,56,19.30
2007,07,11,07,57,19.40
2007,07,11,07,58,19.40
2007,07,11,07,59,19.40
2007,07,11,08,00,19.40
2007,07,11,08,01,19.50
2007,07,11,08,02,19.50
2007,07,11,08,03,19.50
2007,07,11,08,04,19.50
2007,07,11,08,05,19.60
2007,07,11,08,06,19.60
2007,07,11,08,07,19.70
2007,07,11,08,08,19.70
2007,07,11,08,09,19.70
2007,07,11,08,10,19.80
2007,07,11,08,11,19.80
2007,07,11,08,12,19.80
2007,07,11,08,13,19.90
2007,07,11,08,14,19.90
2007,07,11,08,15,19.90
2007,07,11,08,16,19.90
2007,07,11,08,17,20.10
2007,07,11,08,18,20.20
2007,07,11,08,19,20.20
2007,07,11,08,20,20.20
2007,07,11,08,21,20.30
2007,07,11,08,22,20.40
2007,07,11,08,23,20.50
2007,07,11,08,24,20.60
2007,07,11,08,25,20.60
2007,07,11,08,26,20.70
2007,07,11,08,27,20.80
2007,07,11,08,28,20.80
2007,07,11,08,29,20.90
2007,07,11,08,30,21.00
2007,07,11,08,31,21.00
2007,07,11,08,32,21.10
2007,07,11,08,33,21.10
2007,07,11,08,34,21.20
2007,07,11,08,35,21.30
2007,07,11,08,36,21.30
2007,07,11,08,37,21.30
2007,07,11,08,38,21.30
2007,07,11,08,39,21.40
2007,07,11,08,40,21.40
2007,07,11,08,41,21.60
2007,07,11,08,42,21.60
2007,07,11,08,43,21.60
2007,07,11,08,44,21.60
2007,07,11,08,45,21.60
2007,07,11,08,46,21.70
2007,07,11,08,47,21.70
2007,07,11,08,48,21.80
2007,07,11,08,49,21.90
2007,07,11,08,50,21.90
2007,07,11,08,51,22.00
2007,07,11,08,52,22.10
2007,07,11,08,53,22.10
2007,07,11,08,54,22.20
2007,07,11,08,55,22.20
2007,07,11,08,56,22.30
2007,07,11,08,57,22.30
2007,07,11,08,58,22.40
2007,07,11,08,59,22.40
2007,07,11,09,00,22.40
2007,07,11,09,01,22.50
2007,07,11,09,02,22.50
2007,07,11,09,03,22.60
2007,07,11,09,04,22.60
2007,07,11,09,05,22.70
2007,07,11,09,06,22.70
2007,07,11,09,07,22.80
2007,07,11,09,08,22.90
2007,07,11,09,09,22.90
2007,07,11,09,10,22.90
2007,07,11,09,11,22.90
2007,07,11,09,12,23.10
2007,07,11,09,13,23.20
2007,07,11,09,14,23.20
2007,07,11,09,15,23.30
2007,07,11,09,16,23.30
2007,07,11,09,17,23.40
2007,07,11,09,18,23.60
2007,07,11,09,19,23.70
2007,07,11,09,20,23.70
2007,07,11,09,21,23.80
2007,07,11,09,22,23.80
2007,07,11,09,23,23.90
2007,07,11,09,24,24.10
2007,07,11,09,25,24.10
2007,07,11,09,26,24.10
2007,07,11,09,27,24.20
2007,07,11,09,28,24.30
2007,07,11,09,29,24.40
2007,07,11,09,30,24.40
2007,07,11,09,31,24.50
2007,07,11,09,32,24.50
2007,07,11,09,33,24.60
2007,07,11,09,34,24.60
2007,07,11,09,35,24.70
2007,07,11,09,36,24.80
2007,07,11,09,37,24.90
2007,07,11,09,38,24.90
2007,07,11,09,39,25.00
2007,07,11,09,40,25.10
2007,07,11,09,41,25.20
2007,07,11,09,42,25.20
2007,07,11,09,43,25.30
2007,07,11,09,44,25.30
2007,07,11,09,45,25.40
2007,07,11,09,46,25.40
2007,07,11,09,47,25.40
2007,07,11,09,48,25.40
2007,07,11,09,49,25.40
2007,07,11,09,50,25.50
2007,07,11,09,51,25.50
2007,07,11,09,52,25.60
2007,07,11,09,53,25.60
2007,07,11,09,54,25.70
2007,07,11,09,55,25.70
2007,07,11,09,56,25.80
2007,07,11,09,57,25.90
2007,07,11,09,58,26.00
2007,07,11,09,59,26.00
2007,07,11,10,00,26.10
2007,07,11,10,01,26.20
2007,07,11,10,02,26.30
2007,07,11,10,03,26.30
2007,07,11,10,04,26.40
2007,07,11,10,05,26.40
2007,07,11,10,06,26.60
2007,07,11,10,07,26.60
2007,07,11,10,08,26.60
2007,07,11,10,09,26.60
2007,07,11,10,10,26.70
2007,07,11,10,11,26.70
2007,07,11,10,12,26.80
2007,07,11,10,13,26.90
2007,07,11,10,14,26.90
2007,07,11,10,15,27.10
2007,07,11,10,16,27.20
2007,07,11,10,17,27.30
2007,07,11,10,18,27.30
2007,07,11,10,19,27.30
2007,07,11,10,20,27.40
2007,07,11,10,21,27.40
2007,07,11,10,22,27.60
2007,07,11,10,23,27.70
2007,07,11,10,24,27.70
2007,07,11,10,25,27.80
2007,07,11,10,26,27.80
2007,07,11,10,27,27.90
2007,07,11,10,28,27.90
2007,07,11,10,29,28.00
2007,07,11,10,30,28.00
2007,07,11,10,31,28.10
2007,07,11,10,32,28.10
2007,07,11,10,33,28.20
2007,07,11,10,34,28.20
2007,07,11,10,35,28.30
2007,07,11,10,36,28.30
2007,07,11,10,37,28.40
2007,07,11,10,38,28.60
2007,07,11,10,39,28.60
2007,07,11,10,40,28.70
2007,07,11,10,41,28.80
2007,07,11,10,42,28.90
2007,07,11,10,43,28.90
2007,07,11,10,44,29.10
2007,07,11,10,45,29.10
2007,07,11,10,46,29.10
2007,07,11,10,47,29.20
2007,07,11,10,48,29.20
2007,07,11,10,49,29.30
2007,07,11,10,50,29.30
2007,07,11,10,51,29.40
2007,07,11,10,52,29.40
2007,07,11,10,53,29.50
2007,07,11,10,54,29.50
2007,07,11,10,55,29.60
2007,07,11,10,56,29.60
2007,07,11,10,57,29.60
2007,07,11,10,58,29.70
2007,07,11,10,59,29.70
2007,07,11,11,00,29.80
2007,07,11,11,01,29.80
2007,07,11,11,02,29.90
2007,07,11,11,03,29.90
2007,07,11,11,04,30.10
2007,07,11,11,05,30.10
2007,07,11,11,06,30.20
2007,07,11,11,07,30.20
2007,07,11,11,08,30.30
2007,07,11,11,09,30.30
2007,07,11,11,10,30.40
2007,07,11,11,11,30.40
2007,07,11,11,12,30.40
2007,07,11,11,13,30.60
2007,07,11,11,14,30.60
2007,07,11,11,15,30.70
2007,07,11,11,16,30.70
2007,07,11,11,17,30.70
2007,07,11,11,18,30.80
2007,07,11,11,19,30.80
2007,07,11,11,20,30.80
2007,07,11,11,21,30.80
2007,07,11,11,22,30.90
2007,07,11,11,23,30.90
2007,07,11,11,24,30.90
2007,07,11,11,25,31.00
2007,07,11,11,26,31.00
2007,07,11,11,27,31.10
2007,07,11,11,28,31.10
2007,07,11,11,29,31.20
2007,07,11,11,30,31.20
2007,07,11,11,31,31.20
2007,07,11,11,32,31.30
2007,07,11,11,33,31.30
2007,07,11,11,34,31.30
2007,07,11,11,35,31.30
2007,07,11,11,36,31.40
2007,07,11,11,37,31.40
2007,07,11,11,38,31.60
2007,07,11,11,39,31.60
2007,07,11,11,40,31.60
2007,07,11,11,41,31.60
2007,07,11,11,42,31.70
2007,07,11,11,43,31.70
2007,07,11,11,44,31.80
2007,07,11,11,45,31.80
2007,07,11,11,46,31.90
2007,07,11,11,47,32.10
2007,07,11,11,48,32.10
2007,07,11,11,49,32.20
2007,07,11,11,50,32.20
2007,07,11,11,51,32.30
2007,07,11,11,52,32.30
2007,07,11,11,53,32.30
2007,07,11,11,54,32.40
2007,07,11,11,55,32.40
2007,07,11,11,56,32.50
2007,07,11,11,57,32.50
2007,07,11,11,58,32.50
2007,07,11,11,59,32.50
2007,07,11,12,00,32.50
2007,07,11,12,01,32.50
2007,07,11,12,02,32.50
2007,07,11,12,03,32.50
2007,07,11,12,04,32.50
2007,07,11,12,05,32.50
2007,07,11,12,06,32.60
2007,07,11,12,07,32.60
2007,07,11,12,08,32.60
2007,07,11,12,09,32.80
2007,07,11,12,10,32.90
2007,07,11,12,11,32.90
2007,07,11,12,12,32.90
2007,07,11,12,13,33.00
2007,07,11,12,14,33.00
2007,07,11,12,15,33.10
2007,07,11,12,16,33.10
2007,07,11,12,17,33.10
2007,07,11,12,18,33.20
2007,07,11,12,19,33.20
2007,07,11,12,20,33.20
2007,07,11,12,21,33.20
2007,07,11,12,22,33.20
2007,07,11,12,23,33.20
2007,07,11,12,24,33.20
2007,07,11,12,25,33.20
2007,07,11,12,27,33.20
2007,07,11,12,29,33.20
2007,07,11,12,30,33.20
2007,07,11,12,32,33.40
2007,07,11,12,33,33.40
2007,07,11,12,36,33.50
2007,07,11,12,37,33.60
2007,07,11,12,38,33.60
2007,07,11,12,39,33.60
2007,07,11,12,40,33.60
2007,07,11,12,41,33.60
2007,07,11,12,42,33.70
2007,07,11,12,43,33.70
2007,07,11,12,44,33.70
2007,07,11,12,45,33.70
2007,07,11,12,46,33.70
2007,07,11,12,47,33.80
2007,07,11,12,48,33.80
2007,07,11,12,49,33.80
2007,07,11,12,50,33.80
2007,07,11,12,51,34.00
2007,07,11,12,52,34.00
2007,07,11,12,53,33.80
2007,07,11,12,54,34.00
2007,07,11,12,55,34.00
2007,07,11,12,56,34.00
2007,07,11,12,57,34.00
2007,07,11,12,58,34.10
2007,07,11,12,59,34.10
2007,07,11,13,00,34.10
2007,07,11,13,01,34.10
2007,07,11,13,02,34.10
2007,07,11,13,03,34.10
2007,07,11,13,04,34.10
2007,07,11,13,05,34.20
2007,07,11,13,06,34.30
2007,07,11,13,07,34.30
2007,07,11,13,08,34.40
2007,07,11,13,09,34.40
2007,07,11,13,10,34.60
2007,07,11,13,11,34.60
2007,07,11,13,12,34.60
2007,07,11,13,13,34.60
2007,07,11,13,14,34.40
2007,07,11,13,15,34.40
2007,07,11,13,16,34.40
2007,07,11,13,17,34.60
2007,07,11,13,18,34.60
2007,07,11,13,19,34.60
2007,07,11,13,20,34.60
2007,07,11,13,21,34.60
2007,07,11,13,22,34.60
2007,07,11,13,23,34.60
2007,07,11,13,24,34.60
2007,07,11,13,25,34.70
2007,07,11,13,26,34.70
2007,07,11,13,27,34.70
2007,07,11,13,28,34.80
2007,07,11,13,29,34.80
2007,07,11,13,30,34.90
2007,07,11,13,31,34.90
2007,07,11,13,32,34.90
2007,07,11,13,33,34.90
2007,07,11,13,34,35.10
2007,07,11,13,35,35.10
2007,07,11,13,36,35.10
2007,07,11,13,37,35.10
2007,07,11,13,38,35.10
2007,07,11,13,39,35.10
2007,07,11,13,40,35.10
2007,07,11,13,41,35.10
2007,07,11,13,42,35.10
2007,07,11,13,43,35.10
2007,07,11,13,44,35.20
2007,07,11,13,45,35.20
2007,07,11,13,46,35.20
2007,07,11,13,47,35.30
2007,07,11,13,48,35.30
2007,07,11,13,49,35.30
2007,07,11,13,50,35.30
2007,07,11,13,51,35.50
2007,07,11,13,52,35.50
2007,07,11,13,53,35.50
2007,07,11,13,54,35.50
2007,07,11,13,55,35.50
2007,07,11,13,56,35.60
2007,07,11,13,57,35.60
2007,07,11,13,58,35.60
2007,07,11,13,59,35.60
2007,07,11,14,00,35.60
2007,07,11,14,01,35.60
2007,07,11,14,02,35.60
2007,07,11,14,03,35.60
2007,07,11,14,04,35.60
2007,07,11,14,05,35.60
2007,07,11,14,06,35.60
2007,07,11,14,07,35.60
2007,07,11,14,08,35.60
2007,07,11,14,09,35.70
2007,07,11,14,10,35.70
2007,07,11,14,11,35.90
2007,07,11,14,12,35.90
2007,07,11,14,13,36.00
2007,07,11,14,14,36.20
2007,07,11,14,15,36.20
2007,07,11,14,16,36.30
2007,07,11,14,17,36.30
2007,07,11,14,18,36.30
2007,07,11,14,19,36.30
2007,07,11,14,20,36.30
2007,07,11,14,21,36.30
2007,07,11,14,22,36.30
2007,07,11,14,23,36.30
2007,07,11,14,24,36.20
2007,07,11,14,25,36.20
2007,07,11,14,26,36.20
2007,07,11,14,27,36.20
2007,07,11,14,28,36.00
2007,07,11,14,29,36.20
2007,07,11,14,30,36.20
2007,07,11,14,31,36.20
2007,07,11,14,32,36.20
2007,07,11,14,33,36.20
2007,07,11,14,34,36.30
2007,07,11,14,35,36.30
2007,07,11,14,36,36.30
2007,07,11,14,37,36.30
2007,07,11,14,38,36.30
2007,07,11,14,39,36.30
2007,07,11,14,40,36.40
2007,07,11,14,41,36.40
2007,07,11,14,42,36.40
2007,07,11,14,43,36.40
2007,07,11,14,44,36.60
2007,07,11,14,45,36.60
2007,07,11,14,46,36.60
2007,07,11,14,47,36.60
2007,07,11,14,48,36.60
2007,07,11,14,49,36.60
2007,07,11,14,50,36.60
2007,07,11,14,51,36.60
2007,07,11,14,52,36.60
2007,07,11,14,53,36.60
2007,07,11,14,54,36.60
2007,07,11,14,55,36.60
2007,07,11,14,56,36.70
2007,07,11,14,57,36.70
2007,07,11,14,58,36.70
2007,07,11,14,59,36.80
2007,07,11,15,00,36.80
2007,07,11,15,01,36.80
2007,07,11,15,02,36.80
2007,07,11,15,03,36.90
2007,07,11,15,04,36.90
2007,07,11,15,05,36.90
2007,07,11,15,06,37.10
2007,07,11,15,07,37.10
2007,07,11,15,08,37.10
2007,07,11,15,09,37.10
2007,07,11,15,10,36.90
2007,07,11,15,11,36.90
2007,07,11,15,12,36.90
2007,07,11,15,13,36.90
2007,07,11,15,14,36.90
2007,07,11,15,15,37.10
2007,07,11,15,16,37.10
2007,07,11,15,17,37.20
2007,07,11,15,18,37.20
2007,07,11,15,19,37.30
2007,07,11,15,20,37.40
2007,07,11,15,21,37.40
2007,07,11,15,22,37.40
2007,07,11,15,23,37.40
2007,07,11,15,24,37.60
2007,07,11,15,25,37.60
2007,07,11,15,26,37.60
2007,07,11,15,27,37.60
2007,07,11,15,28,37.60
2007,07,11,15,29,37.40
2007,07,11,15,30,37.40
2007,07,11,15,31,37.30
2007,07,11,15,32,37.30
2007,07,11,15,33,37.30
2007,07,11,15,34,37.30
2007,07,11,15,35,37.30
2007,07,11,15,36,37.40
2007,07,11,15,37,37.40
2007,07,11,15,38,37.40
2007,07,11,15,39,37.40
2007,07,11,15,40,37.40
2007,07,11,15,41,37.40
2007,07,11,15,42,37.40
2007,07,11,15,43,37.40
2007,07,11,15,44,37.40
2007,07,11,15,45,37.40
2007,07,11,15,46,37.40
2007,07,11,15,47,37.40
2007,07,11,15,48,37.40
2007,07,11,15,49,37.30
2007,07,11,15,50,37.30
2007,07,11,15,51,37.30
2007,07,11,15,52,37.30
2007,07,11,15,53,37.30
2007,07,11,15,54,37.30
2007,07,11,15,55,37.30
2007,07,11,15,56,37.30
2007,07,11,15,57,37.40
2007,07,11,15,58,37.40
2007,07,11,15,59,37.40
2007,07,11,16,00,37.40
2007,07,11,16,01,37.40
2007,07,11,16,02,37.40
2007,07,11,16,03,37.40
2007,07,11,16,04,37.60
2007,07,11,16,05,37.60
2007,07,11,16,06,37.60
2007,07,11,16,07,37.70
2007,07,11,16,08,37.70
2007,07,11,16,09,37.70
2007,07,11,16,10,37.90
2007,07,11,16,11,37.90
2007,07,11,16,12,38.00
2007,07,11,16,13,38.20
2007,07,11,16,14,38.20
2007,07,11,16,15,38.20
2007,07,11,16,16,38.30
2007,07,11,16,17,38.30
2007,07,11,16,18,38.30
2007,07,11,16,19,38.30
2007,07,11,16,20,38.30
2007,07,11,16,21,38.20
2007,07,11,16,22,38.00
2007,07,11,16,23,38.00
2007,07,11,16,24,38.00
2007,07,11,16,25,38.00
2007,07,11,16,26,38.00
2007,07,11,16,27,38.00
2007,07,11,16,28,38.20
2007,07,11,16,29,38.20
2007,07,11,16,30,38.20
2007,07,11,16,31,38.30
2007,07,11,16,32,38.30
2007,07,11,16,33,38.40
2007,07,11,16,34,38.40
2007,07,11,16,35,38.40
2007,07,11,16,36,38.60
2007,07,11,16,38,38.60
2007,07,11,16,39,38.60
2007,07,11,16,40,38.60
2007,07,11,16,41,38.60
2007,07,11,16,42,38.60
2007,07,11,16,43,38.60
2007,07,11,16,44,38.40
2007,07,11,16,45,38.40
2007,07,11,16,46,38.30
2007,07,11,16,47,38.30
2007,07,11,16,48,38.30
2007,07,11,16,49,38.20
2007,07,11,16,50,38.00
2007,07,11,16,51,38.00
2007,07,11,16,52,37.90
2007,07,11,16,53,37.90
2007,07,11,16,54,37.90
2007,07,11,16,55,37.90
2007,07,11,16,56,37.90
2007,07,11,16,57,37.90
2007,07,11,16,58,38.00
2007,07,11,16,59,38.00
2007,07,11,17,00,38.20
2007,07,11,17,01,38.20
2007,07,11,17,02,38.30
2007,07,11,17,03,38.40
2007,07,11,17,04,38.60
2007,07,11,17,05,38.60
2007,07,11,17,06,38.70
2007,07,11,17,07,38.70
2007,07,11,17,08,38.90
2007,07,11,17,09,38.90
2007,07,11,17,10,38.90
2007,07,11,17,11,38.70
2007,07,11,17,12,38.70
2007,07,11,17,13,38.60
2007,07,11,17,14,38.40
2007,07,11,17,15,38.40
2007,07,11,17,16,38.30
2007,07,11,17,17,38.30
2007,07,11,17,18,38.20
2007,07,11,17,19,38.20
2007,07,11,17,20,38.20
2007,07,11,17,21,38.00
2007,07,11,17,22,38.00
2007,07,11,17,23,38.00
2007,07,11,17,24,38.00
2007,07,11,17,25,38.00
2007,07,11,17,26,38.20
2007,07,11,17,27,38.20
2007,07,11,17,28,38.20
2007,07,11,17,29,38.00
2007,07,11,17,30,38.00
2007,07,11,17,31,38.00
2007,07,11,17,32,37.90
2007,07,11,17,33,37.90
2007,07,11,17,34,37.90
2007,07,11,17,35,37.90
2007,07,11,17,36,37.90
2007,07,11,17,37,37.90